Location: Newark
(31.5350°N, 35.0986°E)
Time: 16:40:38
(UTC+00:00)

Vanguard 1 - Pass Details

Date: 30 September 2019
Orbit: 653 x 3830 km, 34.2° (Epoch: 22 October)

Event Time Altitude Azimuth Distance (km) Brightness Sun altitude
Rises 06:12:28 0° 281° (WNW) 7,114 13.9 32.0°
Reaches altitude 10° 06:21:42 10° 259° (W) 5,288 13.5 33.8°
Maximum altitude 06:26:56 13° 238° (WSW) 4,514 13.3 34.7°
Drops below altitude 10° 06:31:18 10° 215° (SW) 4,231 13.4 35.5°
Sets 06:36:48 0° 188° (S) 4,547 13.7 36.5°
